Location: Mana�l
(15.0115°N, 12.5022°W)
Time: 01:22:31
(UTC+00:00)

Daily predictions for brighter satellites

Satellite Brightness Start Highest point End
(mag) Time Altitude Azimuth Time Altitude Azimuth Time Altitude Azimuth
Cosmos 2344 4.2 03:10:17 47° ESE 03:10:17 47° ESE 03:16:59 10° NE
Cosmos 2237 Rocket 4.2 03:34:33 19° ESE 03:35:26 20° ESE 03:39:23 10° ENE
COSMOS 2428 3.3 03:48:50 52° NNE 03:48:50 52° NNE 03:53:04 10° NNE
Atlas Centaur 2 4.3 03:51:09 15° SE 03:51:09 15° SE 03:53:13 10° ESE
EPKM 4.0 03:39:24 10° WNW 03:54:24 67° NNE 03:57:41 10° E
MSX 4.0 03:54:22 10° NNE 04:00:01 62° ESE 04:00:32 59° SE
Cosmos 2112 Rocket 4.2 04:09:44 60° ESE 04:10:05 62° ESE 04:15:16 10° NNE
Skynet4D Del rocket 3.9 04:10:12 46° NW 04:12:07 72° NNE 04:17:52 10° ESE
Cosmos 2333 Rocket 3.3 04:19:38 29° NW 04:19:38 29° NW 04:23:26 10° N
STARLINK-1043 4.4 04:19:11 49° E 04:19:11 49° E 04:22:35 10° NE
Cosmos 1328 Rocket 4.2 04:15:47 10° N 04:20:00 51° E 04:20:55 43° SE
Cosmos 1821 Rocket 4.1 04:17:51 38° S 04:20:27 77° E 04:26:46 10° N
CZ-2C R/B 3.5 04:16:20 10° NNE 04:21:12 43° E 04:23:37 26° SSE
NOSS 0 Rocket 3.8 04:20:36 61° SSW 04:21:47 87° WNW 04:27:56 10° NNE
ERS-2 3.9 04:24:13 24° NNW 04:24:13 24° NNW 04:25:45 10° NNW
Cosmos 2219 Rocket 3.3 04:23:18 29° NW 04:23:18 29° NW 04:27:11 10° N
USA 32 4.4 04:22:22 35° SSE 04:24:26 63° E 04:29:35 10° N
PSLV R/B 3.5 04:21:56 10° NNE 04:26:05 71° ESE 04:26:10 71° ESE
STARLINK-1063 3.7 04:28:45 71° E 04:28:45 71° E 04:32:35 10° NE
COSMOS 2441 4.2 04:25:27 10° N 04:30:19 71° WNW 04:30:36 68° WSW
Cosmos 1500 Rocket 3.4 04:31:19 77° S 04:31:38 89° ESE 04:36:05 10° N
STARLINK-1064 3.5 04:33:32 85° ENE 04:33:32 85° ENE 04:37:34 10° NE
ATLAS 5 CENTAUR R/B 3.0 04:34:40 22° NW 04:34:40 22° NW 04:36:55 10° N
SL-4 R/B 4.0 04:32:46 10° NNW 04:36:49 31° NE 04:40:39 10° ESE
Cosmos 158 Rocket 3.9 04:37:35 55° WSW 04:38:07 58° WNW 04:43:03 10° N
Cosmos 1606 3.3 04:34:33 10° N 04:37:18 45° NNW 04:37:18 45° NNW
STARLINK-1041 3.4 04:38:19 80° W 04:38:24 81° NW 04:42:32 10° NNE
USA 234 3.2 04:33:08 10° NE 04:39:40 79° SE 04:42:55 32° SSW
CBERS 1 LM4 rocket 4.3 04:35:43 10° N 04:40:48 75° WNW 04:42:14 46° SSW
IDEFIX/ARIANE 42P 3.7 04:38:23 10° NNW 04:42:15 26° WNW 04:42:15 26° WNW
CZ-4B R/B 4.1 04:40:38 10° ESE 04:42:46 18° ENE 04:44:53 10° NNE
Cosmos 1633 3.4 04:44:00 37° NW 04:44:00 37° NW 04:46:28 10° N
STARLINK-1038 3.5 04:43:07 67° W 04:43:23 70° NW 04:47:29 10° NNE
Cosmos 1727 Rocket 3.8 04:37:22 10° N 04:43:31 77° W 04:49:00 14° S
Cosmos 1805 Rocket 4.4 04:40:40 17° SSE 04:43:46 48° E 04:47:59 10° NNE
ARIANE 5 R/B 3.6 04:42:15 30° SSW 04:44:53 40° SSE 05:21:33 10° ESE
ARIANE 5 R/B 3.6 04:42:14 30° SSW 04:44:53 40° SSE 05:21:32 10° ESE
Cosmos 1680 Rocket 4.0 04:47:26 37° W 04:47:56 38° WNW 04:52:48 10° N
Centaur D-1A AC-31 4.1 03:59:35 10° WNW 04:47:59 52° N 04:53:58 10° ENE
STARLINK-1046 3.6 04:47:52 55° W 04:48:20 60° NW 04:52:24 10° NNE
CZ-3 R/B 4.2 04:11:13 15° W 04:49:44 58° NNW 04:59:58 10° NE
H-2A R/B 2.3 04:51:26 45° WSW 04:51:32 45° W 04:55:46 10° NNW
STARLINK-1039 3.9 04:52:40 46° W 04:53:20 51° NW 04:57:21 10° NNE
Cosmos 1980 3.8 04:51:26 36° SW 04:53:25 54° WNW 04:58:55 10° N
GPS 2-17 Rocket1 3.9 04:52:15 23° WNW 04:54:23 40° N 04:58:28 10° ENE
ADEOS 3.5 04:50:57 10° N 04:56:10 83° WNW 04:59:46 21° SSW
STARLINK-1045 4.1 04:57:28 38° W 04:58:18 44° NW 05:02:15 10° NNE
Cosmos 1844 3.7 04:54:30 10° NNW 05:00:18 84° ENE 05:06:01 10° SSE
Cosmos 1484 Rocket 4.3 04:58:00 10° NNE 05:01:42 36° E 05:05:23 10° SSE
Cosmos 1151 Rocket 3.6 04:58:46 10° NNW 05:02:45 35° W 05:03:20 33° WSW
STARLINK-1050 4.3 05:02:16 32° W 05:03:18 38° NW 05:07:09 10° NNE
deb Chang Zheng 4 4.5 05:02:00 10° NNW 05:05:37 28° WNW 05:06:11 27° W
GEOS 3 Rocket 4.1 05:03:24 10° S 05:07:56 33° WSW 05:12:32 10° NW
Sich 1 3.2 05:04:33 10° S 05:08:53 74° E 05:13:09 10° N
Cosmos 1346 Rocket 3.8 05:11:42 26° W 05:12:13 27° W 05:15:38 10° NNW
STARLINK-1444 2.8 05:09:48 10° NNW 05:12:19 63° NE 05:14:58 10° SE
STARLINK-1452 2.7 05:10:26 10° NNW 05:12:57 65° NE 05:15:37 10° SE
STARLINK-1392 2.7 05:11:00 10° NNW 05:13:30 67° NE 05:16:10 10° SE
STARLINK-1399 2.7 05:11:06 10° NNW 05:13:36 67° NE 05:16:16 10° SE
STARLINK-1393 2.7 05:11:08 10° NNW 05:13:39 68° NE 05:16:19 10° SE
STARLINK-1394 2.7 05:11:10 10° NNW 05:13:40 68° NE 05:16:21 10° SE
STARLINK-1395 2.7 05:11:13 10° NNW 05:13:43 68° NE 05:16:24 10° SE
STARLINK-1397 2.7 05:11:14 10° NNW 05:13:45 68° NE 05:16:25 10° SE
STARLINK-1414 2.7 05:11:14 10° NNW 05:13:45 68° NE 05:16:25 10° SE
STARLINK-1396 2.7 05:11:14 10° NNW 05:13:45 68° NE 05:16:25 10° SE
STARLINK-1408 2.7 05:11:16 10° NNW 05:13:47 68° NE 05:16:27 10° SE
STARLINK-1404 2.7 05:11:21 10° NNW 05:13:51 68° NE 05:16:33 10° SE
STARLINK-1416 2.7 05:11:21 10° NNW 05:13:51 68° NE 05:16:33 10° SE
STARLINK-1406 2.6 05:11:23 10° NNW 05:13:53 68° NE 05:16:33 10° SE
STARLINK-1415 2.6 05:11:23 10° NNW 05:13:54 69° NE 05:16:34 10° SE
STARLINK-1401 2.6 05:11:28 10° NNW 05:13:57 69° NE 05:16:38 10° SE
STARLINK-1450 2.6 05:11:28 10° NNW 05:13:58 69° NE 05:16:39 10° SE
STARLINK-1417 2.6 05:11:31 10° NNW 05:14:01 69° NE 05:16:42 10° SE
STARLINK-1402 2.6 05:11:32 10° NNW 05:14:03 69° NE 05:16:44 10° SE
STARLINK-1413 2.6 05:11:32 10° NNW 05:14:03 69° NE 05:16:44 10° SE
STARLINK-1419 2.6 05:11:32 10° NNW 05:14:04 69° NE 05:16:45 10° SE
STARLINK-1422 2.6 05:11:39 10° NNW 05:14:10 70° NE 05:16:51 10° SE
STARLINK-1453 2.6 05:11:42 10° NNW 05:14:13 70° NE 05:16:53 10° SE
STARLINK-1398 2.6 05:11:45 10° NNW 05:14:15 70° NE 05:16:56 10° SE
STARLINK-1420 2.6 05:11:44 10° NNW 05:14:16 70° NE 05:16:56 10° SE
STARLINK-1440 2.6 05:11:46 10° NNW 05:14:17 70° NE 05:16:57 10° SE
STARLINK-1460 2.6 05:11:47 10° NNW 05:14:18 70° NE 05:17:00 10° SE
STARLINK-1410 2.6 05:11:51 10° NNW 05:14:22 70° NE 05:17:03 10° SE
STARLINK-1423 2.6 05:11:51 10° NNW 05:14:22 70° NE 05:17:03 10° SE
STARLINK-1421 2.6 05:11:52 10° NNW 05:14:23 70° NE 05:17:04 10° SE
STARLINK-1400 2.6 05:11:52 10° NNW 05:14:23 70° NE 05:17:04 10° SE
STARLINK-1436 (VISORSAT) 2.6 05:11:52 10° NNW 05:14:23 70° NE 05:17:05 10° SE
STARLINK-1454 2.6 05:11:54 10° NNW 05:14:26 70° ENE 05:17:07 10° SE
STARLINK-1458 2.6 05:11:58 10° NNW 05:14:29 71° NE 05:17:10 10° SE
STARLINK-1405 2.6 05:12:01 10° NNW 05:14:32 71° NE 05:17:14 10° SE
STARLINK-1445 2.6 05:12:01 10° NNW 05:14:32 71° NE 05:17:13 10° SE
STARLINK-1407 2.6 05:12:02 10° NNW 05:14:33 71° NE 05:17:14 10° SE
STARLINK-1446 2.6 05:12:03 10° NNW 05:14:34 71° NE 05:17:16 10° SE
STARLINK-1370 2.6 05:12:04 10° NNW 05:14:35 71° NE 05:17:17 10° SE
STARLINK-1439 2.6 05:12:05 10° NNW 05:14:36 71° NE 05:17:18 10° SE
STARLINK-1409 2.6 05:12:06 10° NNW 05:14:37 71° NE 05:17:19 10° SE
STARLINK-1456 2.6 05:12:07 10° NNW 05:14:38 71° NE 05:17:20 10° SE
STARLINK-1451 2.6 05:12:07 10° NNW 05:14:38 71° NE 05:17:20 10° SE
STARLINK-1457 2.6 05:12:07 10° NNW 05:14:39 71° NE 05:17:21 10° SE
STARLINK-1455 2.6 05:12:08 10° NNW 05:14:39 71° NE 05:17:21 10° SE
STARLINK-1447 2.6 05:12:08 10° NNW 05:14:40 71° NE 05:17:21 10° SE
STARLINK-1441 2.6 05:12:11 10° NNW 05:14:43 72° NE 05:17:24 10° SE
STARLINK-1437 2.6 05:12:11 10° NNW 05:14:43 72° NE 05:17:25 10° SE
STARLINK-1443 2.6 05:12:15 10° NNW 05:14:47 72° NE 05:17:29 10° SE
STARLINK-1418 2.6 05:12:16 10° NNW 05:14:47 72° NE 05:17:29 10° SE
STARLINK-1351 2.6 05:12:16 10° NNW 05:14:48 72° NE 05:17:29 10° SE
STARLINK-1403 2.6 05:12:16 10° NNW 05:14:48 72° NE 05:17:29 10° SE
STARLINK-1434 2.6 05:12:17 10° NNW 05:14:49 72° NE 05:17:30 10° SE
STARLINK-1442 2.6 05:12:18 10° NNW 05:14:50 72° NE 05:17:31 10° SE
STARLINK-1433 2.6 05:12:20 10° NNW 05:14:52 72° NE 05:17:33 10° SE
STARLINK-1448 2.6 05:12:20 10° NNW 05:14:52 72° NE 05:17:33 10° SE
STARLINK-1449 2.6 05:12:24 10° NNW 05:14:55 72° NE 05:17:37 10° SE
STARLINK-1438 2.6 05:12:25 10° NNW 05:14:57 72° NE 05:17:38 10° SE
Cosmos 1515 Rocket 3.7 05:10:49 10° NNW 05:14:59 48° W 05:19:08 10° SSW
STARLINK-1411 2.6 05:12:33 10° NNW 05:15:05 73° NE 05:17:47 10° SE
STARLINK-1412 2.6 05:12:34 10° NNW 05:15:05 73° NE 05:17:47 10° SE
Iridium 4 Rocket 3.7 05:12:52 20° SSW 05:15:49 43° W 05:20:37 10° NNW
H-2A R/B (2) 2.2 05:11:26 19° WSW 05:18:08 75° SSE 05:21:22 10° ENE
Cosmos 2237 Rocket 3.1 05:16:26 21° WSW 05:19:08 31° WNW 05:24:06 10° N
BREEZE-M DEB (TANK) 3.9 05:18:05 21° SW 05:20:42 76° NW 05:33:12 10° NE
Palapa 6 Rocket 4.4 05:17:20 10° WNW 05:25:02 69° SSW 05:33:02 10° ESE
CZ-4B R/B 3.0 05:23:12 10° NNE 05:26:44 62° E 05:30:19 10° S
Delta 7925 Rocket 4.3 05:22:17 17° WSW 05:27:25 75° NNW 05:35:41 10° ENE
ATLAS 2A CENTAUR R/B 4.1 05:26:13 10° SSE 05:28:25 13° ESE 05:31:50 10° E
FENGYUN 3A 3.9 05:23:27 10° NNE 05:28:52 74° ESE 05:34:17 10° S
STARLINK-60 3.5 05:28:18 10° WNW 05:31:15 35° SW 05:34:12 10° SSE
Aurora 2 Rocket 2.6 05:30:57 14° W 05:33:31 39° NNW 05:36:26 10° NE
STARLINK-1137 4.3 05:30:09 10° SSW 05:33:57 46° SE 05:37:45 10° NE
STARLINK-1195 4.1 05:34:14 10° SSW 05:38:07 53° SE 05:41:59 10° NE
Atlas Centaur 2 2.1 05:33:45 13° SW 05:38:58 66° SSE 05:43:34 10° ENE
Delta 168 4.4 05:36:56 10° SSW 05:39:41 22° SSE 05:43:01 10° E
Cosmos 1844 Rocket 3.6 05:35:21 10° NW 05:39:53 26° WSW 05:44:26 10° SSW
Fermi 4.2 05:36:09 10° W 05:40:02 42° SSW 05:43:56 10° SE
SJ-12 4.3 05:36:05 10° NNE 05:40:12 69° E 05:44:19 10° S
SL-16 R/B 2.2 05:35:57 10° SSW 05:41:32 68° WNW 05:47:09 10° N
STARLINK-1152 3.9 05:38:26 10° SSW 05:42:20 61° SE 05:46:15 10° NE
PEGASUS R/B 3.2 05:41:52 10° NNE 05:44:06 74° WNW 05:46:54 10° SSW
Cosmos 1689 Rocket 1.9 05:44:55 10° S 05:47:48 74° WSW 05:50:43 10° NNW
Meteor 2-6 Rocket 4.2 05:46:14 10° N 05:51:54 72° W 05:57:25 10° S
Cosmos 1633 Rocket 3.2 05:48:39 10° SSW 05:52:54 55° W 05:57:08 10° N
OAO 3 Rocket 3.7 05:49:24 10° WSW 05:53:57 48° NNW 05:58:27 10° NE
ARIANE 44L R/B 3.3 05:54:10 10° SSW 05:55:10 13° S 05:56:11 10° SE
STARLINK-1176 3.6 05:51:15 10° SW 05:55:23 85° NW 05:59:30 10° NE
CZ-2C R/B 4.4 05:56:54 10° NW 05:58:57 12° WNW 06:01:00 10° W
Cosmos 1666 Rocket 4.3 05:54:58 10° SSW 05:59:02 35° W 06:03:06 10° NNW
Cosmos 1371 Rocket 4.4 05:54:14 10° N 05:59:24 70° ENE 06:04:37 10° SSE
Cosmos 2278 Rocket 2.7 05:57:01 10° N 06:02:39 68° ENE 06:08:15 10° SSE
